owner,sensor,date,latitude,longitude,vertical_datum,direction_of_sea_water_velocity,sea_water_speed,upward_sea_water_velocity,qcFlag 
TABS,ioos:station:wmo:42048:1,2003-10-01T00:00:00Z,27.9396,-96.8429,2.0,204.4123905,87.87686157,-99999.0,'11111222,11111222,99999999' 
TABS,ioos:station:wmo:42048:1,2003-10-01T00:30:00Z,27.9396,-96.8429,2.0,203.2568936,78.35715475,-99999.0,'11111222,11111222,99999999' 
TABS,ioos:station:wmo:42048:1,2003-10-01T01:00:00Z,27.9396,-96.8429,2.0,216.4705243,75.80583883,-99999.0,'11111222,11111222,99999999' 
TABS,ioos:station:wmo:42048:1,2003-10-01T01:30:00Z,27.9396,-96.8429,2.0,220.7805549,75.4476991,-99999.0,'11111222,11111222,99999999' 
TABS,ioos:station:wmo:42048:1,2003-10-01T02:00:00Z,27.9396,-96.8429,2.0,220.3603342,89.60825464,-99999.0,'11111222,11111222,99999999' 
TABS,ioos:station:wmo:42048:1,2003-10-01T03:00:00Z,27.9396,-96.8429,2.0,220.9157852,84.49460397,-99999.0,'11111222,11111222,99999999' 
TABS,ioos:station:wmo:42048:1,2003-10-01T03:30:00Z,27.9396,-96.8429,2.0,216.9499469,64.1800631,-99999.0,'11111222,11111222,99999999' 
TABS,ioos:station:wmo:42048:1,2003-10-01T04:00:00Z,27.9396,-96.8429,2.0,213.6541425,71.34832654,-99999.0,'11111222,11111222,99999999' 
TABS,ioos:station:wmo:42048:1,2003-10-01T04:30:00Z,27.9396,-96.8429,2.0,221.3703682,79.64560565,-99999.0,'11111222,11111222,99999999' 
TABS,ioos:station:wmo:42048:1,2003-10-01T05:00:00Z,27.9396,-96.8429,2.0,218.5264103,81.34800858,-99999.0,'11111222,11111222,99999999' 
TABS,ioos:station:wmo:42048:1,2003-10-01T05:30:00Z,27.9396,-96.8429,2.0,220.6546871,81.01271505,-99999.0,'11111222,11111222,99999999' 
TABS,ioos:station:wmo:42048:1,2003-10-01T06:00:00Z,27.9396,-96.8429,2.0,218.4662052,81.47163003,-99999.0,'11111222,11111222,99999999' 
TABS,ioos:station:wmo:42048:1,2003-10-01T06:30:00Z,27.9396,-96.8429,2.0,212.7340564,77.98505562,-99999.0,'11111222,11111222,99999999' 
TABS,ioos:station:wmo:42048:1,2003-10-01T07:30:00Z,27.9396,-96.8429,2.0,210.3293216,71.58789423,-99999.0,'11111222,11111222,99999999' 
TABS,ioos:station:wmo:42048:1,2003-10-01T08:00:00Z,27.9396,-96.8429,2.0,208.9017097,70.74094288,-99999.0,'11111222,11111222,99999999' 
TABS,ioos:station:wmo:42048:1,2003-10-01T09:00:00Z,27.9396,-96.8429,2.0,216.4017554,75.44051498,-99999.0,'11111222,11111222,99999999' 
TABS,ioos:station:wmo:42048:1,2003-10-01T09:30:00Z,27.9396,-96.8429,2.0,215.2390635,79.70627391,-99999.0,'11111222,11111222,99999999' 
TABS,ioos:station:wmo:42048:1,2003-10-01T10:00:00Z,27.9396,-96.8429,2.0,212.5210824,73.56577601,-99999.0,'11111222,11111222,99999999' 
TABS,ioos:station:wmo:42048:1,2003-10-01T10:30:00Z,27.9396,-96.8429,2.0,211.8708057,82.30906147,-99999.0,'11111222,11111222,99999999' 
TABS,ioos:station:wmo:42048:1,2003-10-01T11:00:00Z,27.9396,-96.8429,2.0,214.69649,89.03203019,-99999.0,'11111222,11111222,99999999' 
TABS,ioos:station:wmo:42048:1,2003-10-01T11:30:00Z,27.9396,-96.8429,2.0,212.7038315,90.74574646,-99999.0,'11111222,11111222,99999999' 
TABS,ioos:station:wmo:42048:1,2003-10-01T12:00:00Z,27.9396,-96.8429,2.0,212.0030029,86.96752612,-99999.0,'11111222,11111222,99999999' 
TABS,ioos:station:wmo:42048:1,2003-10-01T13:00:00Z,27.9396,-96.8429,2.0,207.8344655,76.69360143,-99999.0,'11111222,11111222,99999999' 
TABS,ioos:station:wmo:42048:1,2003-10-01T13:30:00Z,27.9396,-96.8429,2.0,210.0848707,75.60546541,-99999.0,'11111222,11111222,99999999' 
TABS,ioos:station:wmo:42048:1,2003-10-01T14:00:00Z,27.9396,-96.8429,2.0,211.2010343,77.34824174,-99999.0,'11111222,11111222,99999999' 
TABS,ioos:station:wmo:42048:1,2003-10-01T14:30:00Z,27.9396,-96.8429,2.0,210.1015846,76.84349029,-99999.0,'11111222,11111222,99999999' 
TABS,ioos:station:wmo:42048:1,2003-10-01T15:00:00Z,27.9396,-96.8429,2.0,211.5287039,74.57978882,-99999.0,'11111222,11111222,99999999' 
TABS,ioos:station:wmo:42048:1,2003-10-01T15:30:00Z,27.9396,-96.8429,2.0,209.2795107,68.455785,-99999.0,'11111222,11111222,99999999' 
TABS,ioos:station:wmo:42048:1,2003-10-01T16:00:00Z,27.9396,-96.8429,2.0,214.9848528,75.10062916,-99999.0,'11111222,11111222,99999999' 
TABS,ioos:station:wmo:42048:1,2003-10-01T16:30:00Z,27.9396,-96.8429,2.0,215.8891374,71.76450724,-99999.0,'11111222,11111222,99999999' 
TABS,ioos:station:wmo:42048:1,2003-10-01T17:00:00Z,27.9396,-96.8429,2.0,212.2910801,71.35570615,-99999.0,'11111222,11111222,99999999' 
TABS,ioos:station:wmo:42048:1,2003-10-01T18:00:00Z,27.9396,-96.8429,2.0,214.0177304,62.50741556,-99999.0,'11111222,11111222,99999999' 
TABS,ioos:station:wmo:42048:1,2003-10-01T19:00:00Z,27.9396,-96.8429,2.0,219.856816,69.73275414,-99999.0,'11111222,11111222,99999999' 
TABS,ioos:station:wmo:42048:1,2003-10-01T19:30:00Z,27.9396,-96.8429,2.0,220.6269554,74.19347815,-99999.0,'11111222,11111222,99999999' 
TABS,ioos:station:wmo:42048:1,2003-10-01T20:30:00Z,27.9396,-96.8429,2.0,218.9736665,73.48554484,-99999.0,'11111222,11111222,99999999' 
TABS,ioos:station:wmo:42048:1,2003-10-01T21:00:00Z,27.9396,-96.8429,2.0,215.8075479,77.90538364,-99999.0,'11111222,11111222,99999999' 
TABS,ioos:station:wmo:42048:1,2003-10-01T22:00:00Z,27.9396,-96.8429,2.0,216.3381666,85.17366377,-99999.0,'11111222,11111222,99999999' 
TABS,ioos:station:wmo:42048:1,2003-10-01T22:30:00Z,27.9396,-96.8429,2.0,215.6374596,81.19677457,-99999.0,'11111222,11111222,99999999' 
TABS,ioos:station:wmo:42048:1,2003-10-01T23:00:00Z,27.9396,-96.8429,2.0,213.6827052,89.86697948,-99999.0,'11111222,11111222,99999999' 
TABS,ioos:station:wmo:42048:1,2003-10-02T00:00:00Z,27.9396,-96.8429,2.0,212.9661585,87.84378179,-99999.0,'11111222,11111222,99999999' 
TABS,ioos:station:wmo:42048:1,2003-10-02T00:30:00Z,27.9396,-96.8429,2.0,210.6202447,89.03508803,-99999.0,'11111222,11111222,99999999' 
TABS,ioos:station:wmo:42048:1,2003-10-02T01:00:00Z,27.9396,-96.8429,2.0,209.5468752,91.29258897,-99999.0,'11111222,11111222,99999999' 
TABS,ioos:station:wmo:42048:1,2003-10-02T01:30:00Z,27.9396,-96.8429,2.0,208.3786542,92.82544533,-99999.0,'11111222,11111222,99999999' 
TABS,ioos:station:wmo:42048:1,2003-10-02T02:00:00Z,27.9396,-96.8429,2.0,208.3914705,96.38326099,-99999.0,'11111222,11111222,99999999' 
TABS,ioos:station:wmo:42048:1,2003-10-02T02:30:00Z,27.9396,-96.8429,2.0,208.1392915,92.44712218,-99999.0,'11111222,11111222,99999999' 
TABS,ioos:station:wmo:42048:1,2003-10-02T03:00:00Z,27.9396,-96.8429,2.0,209.231011,90.08136433,-99999.0,'11111222,11111222,99999999' 
TABS,ioos:station:wmo:42048:1,2003-10-02T03:30:00Z,27.9396,-96.8429,2.0,215.8638137,79.98432346,-99999.0,'11111222,11111222,99999999' 
TABS,ioos:station:wmo:42048:1,2003-10-02T04:00:00Z,27.9396,-96.8429,2.0,215.4006407,72.08769104,-99999.0,'11111222,11111222,99999999' 
TABS,ioos:station:wmo:42048:1,2003-10-02T04:30:00Z,27.9396,-96.8429,2.0,215.2432664,66.80491075,-99999.0,'11111222,11111222,99999999' 
TABS,ioos:station:wmo:42048:1,2003-10-02T05:00:00Z,27.9396,-96.8429,2.0,215.8631679,72.98725985,-99999.0,'11111222,11111222,99999999' 
TABS,ioos:station:wmo:42048:1,2003-10-02T06:00:00Z,27.9396,-96.8429,2.0,213.5719337,68.77187579,-99999.0,'11111222,11111222,99999999' 
TABS,ioos:station:wmo:42048:1,2003-10-02T06:30:00Z,27.9396,-96.8429,2.0,205.7816744,59.22555614,-99999.0,'11111222,11111222,99999999' 
TABS,ioos:station:wmo:42048:1,2003-10-02T07:00:00Z,27.9396,-96.8429,2.0,216.2319969,62.90389495,-99999.0,'11111222,11111222,99999999' 
TABS,ioos:station:wmo:42048:1,2003-10-02T07:30:00Z,27.9396,-96.8429,2.0,214.6295375,59.3553578,-99999.0,'11111222,11111222,99999999' 
TABS,ioos:station:wmo:42048:1,2003-10-02T08:00:00Z,27.9396,-96.8429,2.0,212.3590465,59.71293997,-99999.0,'11111222,11111222,99999999' 
TABS,ioos:station:wmo:42048:1,2003-10-02T09:00:00Z,27.9396,-96.8429,2.0,218.7172069,82.19273082,-99999.0,'11111222,11111222,99999999' 
TABS,ioos:station:wmo:42048:1,2003-10-02T10:00:00Z,27.9396,-96.8429,2.0,217.6864903,77.43587024,-99999.0,'11111222,11111222,99999999' 
TABS,ioos:station:wmo:42048:1,2003-10-02T10:30:00Z,27.9396,-96.8429,2.0,217.4193689,76.70553109,-99999.0,'11111222,11111222,99999999' 
TABS,ioos:station:wmo:42048:1,2003-10-02T11:00:00Z,27.9396,-96.8429,2.0,216.730026,73.89021924,-99999.0,'11111222,11111222,99999999' 
TABS,ioos:station:wmo:42048:1,2003-10-02T11:30:00Z,27.9396,-96.8429,2.0,212.8112448,76.69631803,-99999.0,'11111222,11111222,99999999' 
TABS,ioos:station:wmo:42048:1,2003-10-02T12:00:00Z,27.9396,-96.8429,2.0,209.1118507,72.55606177,-99999.0,'11111222,11111222,99999999' 
TABS,ioos:station:wmo:42048:1,2003-10-02T12:30:00Z,27.9396,-96.8429,2.0,212.8608922,66.14382586,-99999.0,'11111222,11111222,99999999' 
TABS,ioos:station:wmo:42048:1,2003-10-02T13:00:00Z,27.9396,-96.8429,2.0,204.2161983,62.53273863,-99999.0,'11111222,11111222,99999999' 
TABS,ioos:station:wmo:42048:1,2003-10-02T13:30:00Z,27.9396,-96.8429,2.0,211.9098944,75.27585337,-99999.0,'11111222,11111222,99999999' 
TABS,ioos:station:wmo:42048:1,2003-10-02T14:00:00Z,27.9396,-96.8429,2.0,208.8040018,69.362128,-99999.0,'11111222,11111222,99999999' 
TABS,ioos:station:wmo:42048:1,2003-10-02T14:30:00Z,27.9396,-96.8429,2.0,215.9871221,62.2013778,-99999.0,'11111222,11111222,99999999' 
TABS,ioos:station:wmo:42048:1,2003-10-02T15:00:00Z,27.9396,-96.8429,2.0,214.6846849,85.45612793,-99999.0,'11111222,11111222,99999999' 
TABS,ioos:station:wmo:42048:1,2003-10-02T15:30:00Z,27.9396,-96.8429,2.0,216.8978749,72.95200888,-99999.0,'11111222,11111222,99999999' 
TABS,ioos:station:wmo:42048:1,2003-10-02T16:00:00Z,27.9396,-96.8429,2.0,216.672134,91.68854454,-99999.0,'11111222,11111222,99999999' 
TABS,ioos:station:wmo:42048:1,2003-10-02T16:30:00Z,27.9396,-96.8429,2.0,216.799595,93.30206964,-99999.0,'11111222,11111222,99999999' 
TABS,ioos:station:wmo:42048:1,2003-10-02T17:00:00Z,27.9396,-96.8429,2.0,214.8090367,91.72331056,-99999.0,'11111222,11111222,99999999' 
TABS,ioos:station:wmo:42048:1,2003-10-02T18:00:00Z,27.9396,-96.8429,2.0,216.7730941,85.49212127,-99999.0,'11111222,11111222,99999999' 
TABS,ioos:station:wmo:42048:1,2003-10-02T18:30:00Z,27.9396,-96.8429,2.0,217.2980271,81.04426568,-99999.0,'11111222,11111222,99999999' 
TABS,ioos:station:wmo:42048:1,2003-10-02T19:00:00Z,27.9396,-96.8429,2.0,216.4122783,83.44065796,-99999.0,'11111222,11111222,99999999' 
TABS,ioos:station:wmo:42048:1,2003-10-02T19:30:00Z,27.9396,-96.8429,2.0,214.8196612,85.65681818,-99999.0,'11111222,11111222,99999999' 
TABS,ioos:station:wmo:42048:1,2003-10-02T20:00:00Z,27.9396,-96.8429,2.0,213.183805,76.00521101,-99999.0,'11111222,11111222,99999999' 
TABS,ioos:station:wmo:42048:1,2003-10-02T20:30:00Z,27.9396,-96.8429,2.0,217.6442279,79.58927377,-99999.0,'11111222,11111222,99999999' 
TABS,ioos:station:wmo:42048:1,2003-10-02T21:00:00Z,27.9396,-96.8429,2.0,216.1026586,70.22629137,-99999.0,'11111222,11111222,99999999' 
TABS,ioos:station:wmo:42048:1,2003-10-02T21:30:00Z,27.9396,-96.8429,2.0,219.7111558,87.30334472,-99999.0,'11111222,11111222,99999999' 
TABS,ioos:station:wmo:42048:1,2003-10-02T22:00:00Z,27.9396,-96.8429,2.0,223.0115066,86.41804557,-99999.0,'11111222,11111222,99999999' 
TABS,ioos:station:wmo:42048:1,2003-10-02T22:30:00Z,27.9396,-96.8429,2.0,219.28854,71.41163281,-99999.0,'11111222,11111222,99999999' 
TABS,ioos:station:wmo:42048:1,2003-10-02T23:00:00Z,27.9396,-96.8429,2.0,221.5793618,74.1945254,-99999.0,'11111222,11111222,99999999' 
TABS,ioos:station:wmo:42048:1,2003-10-03T00:00:00Z,27.9396,-96.8429,2.0,216.827302,70.43601919,-99999.0,'11111222,11111222,99999999' 
TABS,ioos:station:wmo:42048:1,2003-10-03T00:30:00Z,27.9396,-96.8429,2.0,218.4287232,70.56612502,-99999.0,'11111222,11111222,99999999' 
TABS,ioos:station:wmo:42048:1,2003-10-03T01:00:00Z,27.9396,-96.8429,2.0,216.6383798,72.3565892,-99999.0,'11111222,11111222,99999999' 
TABS,ioos:station:wmo:42048:1,2003-10-03T01:30:00Z,27.9396,-96.8429,2.0,218.8503787,73.60197891,-99999.0,'11111222,11111222,99999999' 
TABS,ioos:station:wmo:42048:1,2003-10-03T02:30:00Z,27.9396,-96.8429,2.0,219.6026075,62.62322972,-99999.0,'11111222,11111222,99999999' 
TABS,ioos:station:wmo:42048:1,2003-10-03T03:00:00Z,27.9396,-96.8429,2.0,266.2578284,34.78414869,-99999.0,'11111222,11111222,99999999' 
TABS,ioos:station:wmo:42048:1,2003-10-03T03:30:00Z,27.9396,-96.8429,2.0,219.0450151,60.11732695,-99999.0,'11111222,11111222,99999999' 
TABS,ioos:station:wmo:42048:1,2003-10-03T04:00:00Z,27.9396,-96.8429,2.0,211.6642106,58.61574021,-99999.0,'11111222,11111222,99999999' 
TABS,ioos:station:wmo:42048:1,2003-10-03T04:30:00Z,27.9396,-96.8429,2.0,217.4985218,59.58158944,-99999.0,'11111222,11111222,99999999' 
TABS,ioos:station:wmo:42048:1,2003-10-03T05:00:00Z,27.9396,-96.8429,2.0,210.0581136,51.22959301,-99999.0,'11111222,11111222,99999999' 
TABS,ioos:station:wmo:42048:1,2003-10-03T05:30:00Z,27.9396,-96.8429,2.0,219.4778323,59.59573894,-99999.0,'11111222,11111222,99999999' 
TABS,ioos:station:wmo:42048:1,2003-10-03T06:00:00Z,27.9396,-96.8429,2.0,215.4425455,71.63421808,-99999.0,'11111222,11111222,99999999' 
TABS,ioos:station:wmo:42048:1,2003-10-03T06:30:00Z,27.9396,-96.8429,2.0,212.336454,73.86506752,-99999.0,'11111222,11111222,99999999' 
TABS,ioos:station:wmo:42048:1,2003-10-03T07:00:00Z,27.9396,-96.8429,2.0,211.8730765,69.46396548,-99999.0,'11111222,11111222,99999999' 
TABS,ioos:station:wmo:42048:1,2003-10-03T07:30:00Z,27.9396,-96.8429,2.0,212.5668182,73.30661635,-99999.0,'11111222,11111222,99999999' 
TABS,ioos:station:wmo:42048:1,2003-10-03T08:00:00Z,27.9396,-96.8429,2.0,205.034858,79.73082967,-99999.0,'11111222,11111222,99999999' 
TABS,ioos:station:wmo:42048:1,2003-10-03T08:30:00Z,27.9396,-96.8429,2.0,207.3547656,71.35971202,-99999.0,'11111222,11111222,99999999' 
TABS,ioos:station:wmo:42048:1,2003-10-03T09:00:00Z,27.9396,-96.8429,2.0,208.231508,75.95558768,-99999.0,'11111222,11111222,99999999' 
TABS,ioos:station:wmo:42048:1,2003-10-03T09:30:00Z,27.9396,-96.8429,2.0,210.6195214,83.99123049,-99999.0,'11111222,11111222,99999999' 
TABS,ioos:station:wmo:42048:1,2003-10-03T10:00:00Z,27.9396,-96.8429,2.0,213.7977593,75.05384334,-99999.0,'11111222,11111222,99999999' 
TABS,ioos:station:wmo:42048:1,2003-10-03T10:30:00Z,27.9396,-96.8429,2.0,212.4245009,84.27950937,-99999.0,'11111222,11111222,99999999' 
TABS,ioos:station:wmo:42048:1,2003-10-03T11:00:00Z,27.9396,-96.8429,2.0,213.4395806,80.6624981,-99999.0,'11111222,11111222,99999999' 
TABS,ioos:station:wmo:42048:1,2003-10-03T11:30:00Z,27.9396,-96.8429,2.0,214.8880079,74.67065421,-99999.0,'11111222,11111222,99999999' 
TABS,ioos:station:wmo:42048:1,2003-10-03T12:00:00Z,27.9396,-96.8429,2.0,214.5231955,74.93683006,-99999.0,'11111222,11111222,99999999' 
TABS,ioos:station:wmo:42048:1,2003-10-03T12:30:00Z,27.9396,-96.8429,2.0,212.6434921,70.02038632,-99999.0,'11111222,11111222,99999999' 
TABS,ioos:station:wmo:42048:1,2003-10-03T13:00:00Z,27.9396,-96.8429,2.0,209.3058867,79.86086463,-99999.0,'11111222,11111222,99999999' 
TABS,ioos:station:wmo:42048:1,2003-10-03T13:30:00Z,27.9396,-96.8429,2.0,208.312746,82.24954833,-99999.0,'11111222,11111222,99999999' 
TABS,ioos:station:wmo:42048:1,2003-10-03T14:30:00Z,27.9396,-96.8429,2.0,200.311947,76.45431054,-99999.0,'11111222,11111222,99999999' 
TABS,ioos:station:wmo:42048:1,2003-10-03T15:00:00Z,27.9396,-96.8429,2.0,201.5714128,67.61593008,-99999.0,'11111222,11111222,99999999' 
TABS,ioos:station:wmo:42048:1,2003-10-03T15:30:00Z,27.9396,-96.8429,2.0,197.9710618,60.96438468,-99999.0,'11111222,11111222,99999999' 
TABS,ioos:station:wmo:42048:1,2003-10-03T16:00:00Z,27.9396,-96.8429,2.0,201.2720993,59.72959484,-99999.0,'11111222,11111222,99999999' 
TABS,ioos:station:wmo:42048:1,2003-10-03T16:30:00Z,27.9396,-96.8429,2.0,201.7459907,57.86826505,-99999.0,'11111222,11111222,99999999' 
TABS,ioos:station:wmo:42048:1,2003-10-03T17:00:00Z,27.9396,-96.8429,2.0,222.9725932,63.17002454,-99999.0,'11111222,11111222,99999999' 
TABS,ioos:station:wmo:42048:1,2003-10-03T17:30:00Z,27.9396,-96.8429,2.0,225.1336677,57.45258306,-99999.0,'11111222,11111222,99999999' 
TABS,ioos:station:wmo:42048:1,2003-10-03T18:00:00Z,27.9396,-96.8429,2.0,227.1790464,57.64261271,-99999.0,'11111222,11111222,99999999' 
TABS,ioos:station:wmo:42048:1,2003-10-03T18:30:00Z,27.9396,-96.8429,2.0,221.2543681,51.74344789,-99999.0,'11111222,11111222,99999999' 
TABS,ioos:station:wmo:42048:1,2003-10-03T19:00:00Z,27.9396,-96.8429,2.0,228.606283,62.61102858,-99999.0,'11111222,11111222,99999999' 
TABS,ioos:station:wmo:42048:1,2003-10-03T20:00:00Z,27.9396,-96.8429,2.0,226.7702378,64.08032615,-99999.0,'11111222,11111222,99999999' 
TABS,ioos:station:wmo:42048:1,2003-10-03T20:30:00Z,27.9396,-96.8429,2.0,222.4157509,56.3075954,-99999.0,'11111222,11111222,99999999' 
TABS,ioos:station:wmo:42048:1,2003-10-03T21:30:00Z,27.9396,-96.8429,2.0,221.9052956,64.70976742,-99999.0,'11111222,11111222,99999999' 
TABS,ioos:station:wmo:42048:1,2003-10-03T22:00:00Z,27.9396,-96.8429,2.0,219.0649559,65.10578623,-99999.0,'11111222,11111222,99999999' 
TABS,ioos:station:wmo:42048:1,2003-10-03T23:30:00Z,27.9396,-96.8429,2.0,213.3814498,70.60881036,-99999.0,'11111222,11111222,99999999' 
TABS,ioos:station:wmo:42048:1,2003-10-04T00:00:00Z,27.9396,-96.8429,2.0,212.5620988,74.69098004,-99999.0,'11111222,11111222,99999999' 
TABS,ioos:station:wmo:42048:1,2003-10-04T01:00:00Z,27.9396,-96.8429,2.0,209.2714263,72.54294797,-99999.0,'11111222,11111222,99999999' 
TABS,ioos:station:wmo:42048:1,2003-10-04T01:30:00Z,27.9396,-96.8429,2.0,209.8784018,58.9563508,-99999.0,'11111222,11111222,99999999' 
TABS,ioos:station:wmo:42048:1,2003-10-04T02:00:00Z,27.9396,-96.8429,2.0,216.4422014,54.69552175,-99999.0,'11111222,11111222,99999999' 
TABS,ioos:station:wmo:42048:1,2003-10-04T02:30:00Z,27.9396,-96.8429,2.0,229.0484312,64.99683146,-99999.0,'11111222,11111222,99999999' 
TABS,ioos:station:wmo:42048:1,2003-10-04T03:00:00Z,27.9396,-96.8429,2.0,227.7227999,60.42686985,-99999.0,'11111222,11111222,99999999' 
TABS,ioos:station:wmo:42048:1,2003-10-04T03:30:00Z,27.9396,-96.8429,2.0,230.3907464,60.43504364,-99999.0,'11111222,11111222,99999999' 
TABS,ioos:station:wmo:42048:1,2003-10-04T04:00:00Z,27.9396,-96.8429,2.0,231.433008,69.16632707,-99999.0,'11111222,11111222,99999999' 
TABS,ioos:station:wmo:42048:1,2003-10-04T04:30:00Z,27.9396,-96.8429,2.0,220.6664043,62.70162039,-99999.0,'11111222,11111222,99999999' 
TABS,ioos:station:wmo:42048:1,2003-10-04T05:00:00Z,27.9396,-96.8429,2.0,218.0460639,57.76417661,-99999.0,'11111222,11111222,99999999' 
TABS,ioos:station:wmo:42048:1,2003-10-04T05:30:00Z,27.9396,-96.8429,2.0,229.3962967,59.67865364,-99999.0,'11111222,11111222,99999999' 
TABS,ioos:station:wmo:42048:1,2003-10-04T06:00:00Z,27.9396,-96.8429,2.0,224.231121,53.24285962,-99999.0,'11111222,11111222,99999999' 
TABS,ioos:station:wmo:42048:1,2003-10-04T06:30:00Z,27.9396,-96.8429,2.0,221.2046567,50.95979297,-99999.0,'11111222,11111222,99999999' 
TABS,ioos:station:wmo:42048:1,2003-10-04T07:00:00Z,27.9396,-96.8429,2.0,223.4924812,46.50836161,-99999.0,'11111222,11111222,99999999' 
TABS,ioos:station:wmo:42048:1,2003-10-04T07:30:00Z,27.9396,-96.8429,2.0,219.0903707,43.61275616,-99999.0,'11111222,11111222,99999999' 
TABS,ioos:station:wmo:42048:1,2003-10-04T08:00:00Z,27.9396,-96.8429,2.0,223.0408724,41.58096319,-99999.0,'11111222,11111222,99999999' 
TABS,ioos:station:wmo:42048:1,2003-10-04T08:30:00Z,27.9396,-96.8429,2.0,213.9571905,36.84358832,-99999.0,'11111222,11111222,99999999' 
TABS,ioos:station:wmo:42048:1,2003-10-04T09:00:00Z,27.9396,-96.8429,2.0,216.9754179,40.06806833,-99999.0,'11111222,11111222,99999999' 
TABS,ioos:station:wmo:42048:1,2003-10-04T09:30:00Z,27.9396,-96.8429,2.0,218.9011706,38.13797189,-99999.0,'11111222,11111222,99999999' 
TABS,ioos:station:wmo:42048:1,2003-10-04T10:00:00Z,27.9396,-96.8429,2.0,213.3096535,39.71463458,-99999.0,'11111222,11111222,99999999' 
TABS,ioos:station:wmo:42048:1,2003-10-04T10:30:00Z,27.9396,-96.8429,2.0,212.6809582,39.53961178,-99999.0,'11111222,11111222,99999999' 
TABS,ioos:station:wmo:42048:1,2003-10-04T11:00:00Z,27.9396,-96.8429,2.0,216.0849641,42.20795778,-99999.0,'11111222,11111222,99999999' 
TABS,ioos:station:wmo:42048:1,2003-10-04T11:30:00Z,27.9396,-96.8429,2.0,217.9416751,42.75748472,-99999.0,'11111222,11111222,99999999' 
TABS,ioos:station:wmo:42048:1,2003-10-04T12:00:00Z,27.9396,-96.8429,2.0,222.4300726,41.32244426,-99999.0,'11111222,11111222,99999999' 
TABS,ioos:station:wmo:42048:1,2003-10-04T12:30:00Z,27.9396,-96.8429,2.0,221.2140162,34.16416397,-99999.0,'11111222,11111222,99999999' 
TABS,ioos:station:wmo:42048:1,2003-10-04T13:00:00Z,27.9396,-96.8429,2.0,218.7509933,35.21098124,-99999.0,'11111222,11111222,99999999' 
TABS,ioos:station:wmo:42048:1,2003-10-04T13:30:00Z,27.9396,-96.8429,2.0,227.7972646,38.39215675,-99999.0,'11111222,11111222,99999999' 
TABS,ioos:station:wmo:42048:1,2003-10-04T14:00:00Z,27.9396,-96.8429,2.0,224.910132,45.24074712,-99999.0,'11111222,11111222,99999999' 
TABS,ioos:station:wmo:42048:1,2003-10-04T14:30:00Z,27.9396,-96.8429,2.0,226.0436187,44.63291722,-99999.0,'11111222,11111222,99999999' 
TABS,ioos:station:wmo:42048:1,2003-10-04T15:00:00Z,27.9396,-96.8429,2.0,222.8860416,52.34029901,-99999.0,'11111222,11111222,99999999' 
TABS,ioos:station:wmo:42048:1,2003-10-04T15:30:00Z,27.9396,-96.8429,2.0,226.228956,58.01024909,-99999.0,'11111222,11111222,99999999' 
TABS,ioos:station:wmo:42048:1,2003-10-04T16:00:00Z,27.9396,-96.8429,2.0,228.03656,58.32629681,-99999.0,'11111222,11111222,99999999' 
TABS,ioos:station:wmo:42048:1,2003-10-04T16:30:00Z,27.9396,-96.8429,2.0,229.9539344,58.95253854,-99999.0,'11111222,11111222,99999999' 
TABS,ioos:station:wmo:42048:1,2003-10-04T17:30:00Z,27.9396,-96.8429,2.0,222.0008458,45.81962571,-99999.0,'11111222,11111222,99999999' 
TABS,ioos:station:wmo:42048:1,2003-10-04T18:00:00Z,27.9396,-96.8429,2.0,222.4987055,46.1827078,-99999.0,'11111222,11111222,99999999' 
TABS,ioos:station:wmo:42048:1,2003-10-04T18:30:00Z,27.9396,-96.8429,2.0,221.5037613,47.77618654,-99999.0,'11111222,11111222,99999999' 
TABS,ioos:station:wmo:42048:1,2003-10-04T19:00:00Z,27.9396,-96.8429,2.0,224.8070946,50.4877094,-99999.0,'11111222,11111222,99999999' 
TABS,ioos:station:wmo:42048:1,2003-10-04T19:30:00Z,27.9396,-96.8429,2.0,222.3924566,47.25536583,-99999.0,'11111222,11111222,99999999' 
TABS,ioos:station:wmo:42048:1,2003-10-04T20:00:00Z,27.9396,-96.8429,2.0,222.5966337,44.35338657,-99999.0,'11111222,11111222,99999999' 
TABS,ioos:station:wmo:42048:1,2003-10-04T20:30:00Z,27.9396,-96.8429,2.0,222.0853311,42.83536156,-99999.0,'11111222,11111222,99999999' 
TABS,ioos:station:wmo:42048:1,2003-10-04T21:00:00Z,27.9396,-96.8429,2.0,222.7638243,42.59318373,-99999.0,'11111222,11111222,99999999' 
TABS,ioos:station:wmo:42048:1,2003-10-04T21:30:00Z,27.9396,-96.8429,2.0,222.1649479,38.03231521,-99999.0,'11111222,11111222,99999999' 
TABS,ioos:station:wmo:42048:1,2003-10-04T22:00:00Z,27.9396,-96.8429,2.0,220.4065163,40.26469421,-99999.0,'11111222,11111222,99999999' 
TABS,ioos:station:wmo:42048:1,2003-10-04T22:30:00Z,27.9396,-96.8429,2.0,223.401151,39.54265798,-99999.0,'11111222,11111222,99999999' 
TABS,ioos:station:wmo:42048:1,2003-10-04T23:00:00Z,27.9396,-96.8429,2.0,225.7366899,41.77932503,-99999.0,'11111222,11111222,99999999' 
TABS,ioos:station:wmo:42048:1,2003-10-04T23:30:00Z,27.9396,-96.8429,2.0,229.2840638,42.40348099,-99999.0,'11111222,11111222,99999999' 
TABS,ioos:station:wmo:42048:1,2003-10-05T00:00:00Z,27.9396,-96.8429,2.0,229.6973416,38.24861435,-99999.0,'11111222,11111222,99999999' 
TABS,ioos:station:wmo:42048:1,2003-10-05T00:30:00Z,27.9396,-96.8429,2.0,232.8031311,38.5906271,-99999.0,'11111222,11111222,99999999' 
TABS,ioos:station:wmo:42048:1,2003-10-05T01:00:00Z,27.9396,-96.8429,2.0,234.1424286,40.85238059,-99999.0,'11111222,11111222,99999999' 
TABS,ioos:station:wmo:42048:1,2003-10-05T01:30:00Z,27.9396,-96.8429,2.0,229.7954845,42.88058885,-99999.0,'11111222,11111222,99999999' 
TABS,ioos:station:wmo:42048:1,2003-10-05T02:00:00Z,27.9396,-96.8429,2.0,231.0741466,42.43130566,-99999.0,'11111222,11111222,99999999' 
TABS,ioos:station:wmo:42048:1,2003-10-05T02:30:00Z,27.9396,-96.8429,2.0,229.5687169,43.05112426,-99999.0,'11111222,11111222,99999999' 
TABS,ioos:station:wmo:42048:1,2003-10-05T03:00:00Z,27.9396,-96.8429,2.0,228.8796786,41.69465793,-99999.0,'11111222,11111222,99999999' 